星链-36530(STARLINK-36530)

导读 | 豆包AI

STARLINK-36530是美国SpaceX星链星座的一员,于2026年1月18日发射升空。星链计划旨在构建全球卫星互联网星座,为全球提供高速低延迟网络服务,该卫星进一步扩充了星链星座规模,推动全球网络覆盖的完善,助力偏远地区网络接入与全球互联发展。

基本信息
目录编号:
67514
目录名称:
STARLINK-36530
国际标识:
2026-012X
轨道中心:
EARTH
卫星名称:
星链-36530
卫星全名:
星链-36530(STARLINK-36530)
卫星状态:
在轨 (已飞行127 天)
发射日期:
2026-01-18 UTC
国别 :
美国 (US)
星等 :
--
轨道信息
数据来源 国际轨道数据
星历时间: 2026-05-24T22:50:56+0800
18小时前
查看轨道信息
半长轴: 6861.154km
偏心率: 0.0001486
轨道倾角: 43.001°
近地点辐角 274.320°
升交点赤经 245.648°
平近点角 85.748°
近地点: 481.997km
远地点: 484.037km
周期: 94.266分钟
每日圈数: 15.27591
详细信息
固有亮度:
5
最大亮度:
2.5
卫星平台:
Starlink V1.0
覆盖范围:
全球
运营商:
太空探索技术公司
运营商所在国:
美国
制造商(研发单位):
太空探索技术公司
制造商所在国:
美国
使用方式:
暂无
卫星简介
Starlink 计划是 SpaceX 推出的全球卫星互联网项目,通过发射低轨道卫星,为全球尤其是偏远地区提供高速、低延迟的互联网服务。自 2019 年起,Starlink 已部署数千颗卫星,旨在缩小全球数字鸿沟,推动互联网普及。该项目还为军事、航空等行业提供通信支持,带来广泛经济效益。
2D轨道图
3D轨道图
轨道高度分析图
轨道倾角分析图
轨道综合分析图
查看轨道综合分析图